EW5196 Weather Reports


time (UTC)temp
F
wind
direction
speed
knots
gust
knots
rain 1hr
in
rain 24hr
in
rain mn
in
humidity
%
barometer
mb
20260831234301 82 167 0.9 0.9 0.00 0.00 0.00 79 1019.4
20260831233756 83 171 0.0 0.0 0.00 0.00 0.00 78 1019.4
20260831233252 83 194 0.0 1.7 0.00 0.00 0.00 77 1019.8
20260831232746 83 216 0.0 1.7 0.00 0.00 0.00 77 1019.7
20260831232243 84 200 0.9 1.7 0.00 0.00 0.00 76 1019.6
20260831231739 84 206 0.0 0.9 0.00 0.00 0.00 76 1019.4
20260831231235 84 205 0.9 1.7 0.00 0.00 0.00 76 1019.5
20260831230730 84 226 0.0 0.9 0.00 0.00 0.00 76 1019.6
20260831230225 84 206 0.9 0.9 0.00 0.00 0.00 75 1019.4
20260831225724 85 188 0.0 0.9 0.00 0.00 0.00 73 1019.4
20260831225219 85 152 0.9 1.7 0.00 0.00 0.00 73 1019.5
20260831224709 86 241 0.0 1.7 0.00 0.00 0.00 70 1019.4
20260831224204 86 208 0.9 1.7 0.00 0.00 0.00 68 1019.3
20260831223659 87 225 0.0 0.9 0.00 0.00 0.00 67 1019.6
20260831223156 87 141 0.0 1.7 0.00 0.00 0.00 62 1019.6
20260831222651 87 149 0.0 0.9 0.00 0.00 0.00 65 1019.7
20260831222147 87 177 0.0 0.9 0.00 0.00 0.00 63 1019.6
20260831221642 88 171 0.0 0.0 0.00 0.00 0.00 63 1019.5
20260831221137 88 239 0.0 1.7 0.00 0.00 0.00 62 1019.7
20260831220632 89 156 0.9 0.9 0.00 0.00 0.00 60 1019.3
20260831220127 89 246 1.7 2.6 0.00 0.00 0.00 56 1019.6
20260831215623 90 291 1.7 1.7 0.00 0.00 0.00 54 1019.7
20260831215118 90 240 1.7 2.6 0.00 0.00 0.00 55 1019.4
20260831214615 90 260 2.6 3.5 0.00 0.00 0.00 54 1019.5
20260831214112 90 232 1.7 2.6 0.00 0.00 0.00 56 1019.6
20260831213609 90 172 0.0 0.0 0.00 0.00 0.00 55 1019.4
20260831213103 90 151 0.0 1.7 0.00 0.00 0.00 54 1019.5
20260831212559 90 152 0.0 1.7 0.00 0.00 0.00 56 1019.4
20260831212055 90 238 1.7 2.6 0.00 0.00 0.00 54 1019.6
20260831211549 91 248 0.9 1.7 0.00 0.00 0.00 55 1019.5
20260831211048 91 164 0.9 1.7 0.00 0.00 0.00 55 1019.5
20260831210543 90 298 0.9 2.6 0.00 0.00 0.00 53 1019.3
20260831210040 90 222 0.0 2.6 0.00 0.00 0.00 57 1019.4
20260831205539 91 132 0.0 1.7 0.00 0.00 0.00 54 1019.4
20260831205035 91 199 0.9 2.6 0.00 0.00 0.00 52 1019.4
20260831204530 91 230 3.5 4.3 0.00 0.00 0.00 52 1019.3
20260831204028 92 283 1.7 3.5 0.00 0.00 0.00 52 1019.4
20260831203528 92 327 0.0 2.6 0.00 0.00 0.00 51 1019.5
20260831203027 92 285 0.0 1.7 0.00 0.00 0.00 53 1019.4
20260831202521 92 109 0.0 0.9 0.00 0.00 0.00 51 1019.4
20260831202021 92 283 1.7 2.6 0.00 0.00 0.00 53 1019.4
20260831201520 92 157 1.7 1.7 0.00 0.00 0.00 52 1019.1
20260831201016 92 230 1.7 4.3 0.00 0.00 0.00 50 1019.2
20260831200511 92 235 2.6 3.5 0.00 0.00 0.00 53 1019.2
20260831200006 92 254 0.0 2.6 0.00 0.00 0.00 51 1019.6
20260831195502 92 238 0.9 4.3 0.00 0.00 0.00 50 1019.7
20260831195001 93 130 1.7 3.5 0.00 0.00 0.00 49 1019.5
20260831194457 92 205 0.9 3.5 0.00 0.00 0.00 51 1019.6
20260831193956 92 290 1.7 4.3 0.00 0.00 0.00 49 1019.6
20260831193452 93 170 2.6 3.5 0.00 0.00 0.00 48 1019.6
20260831192947 94 293 1.7 4.3 0.00 0.00 0.00 47 1019.5
20260831192442 94 134 0.0 2.6 0.00 0.00 0.00 49 1019.6
20260831191937 93 228 3.5 3.5 0.00 0.00 0.00 49 1019.5
20260831191433 93 200 0.9 3.5 0.00 0.00 0.00 51 1019.8
20260831190929 93 247 2.6 2.6 0.00 0.00 0.00 50 1019.6
20260831190424 91 153 0.9 1.7 0.00 0.00 0.00 53 1019.8
20260831185923 92 276 1.7 2.6 0.00 0.00 0.00 50 1019.9
20260831185419 93 212 2.6 3.5 0.00 0.00 0.00 48 1020.0
20260831184918 94 245 2.6 3.5 0.00 0.00 0.00 47 1019.9
20260831184413 93 196 1.7 2.6 0.00 0.00 0.00 49 1020.0
20260831183908 93 233 2.6 4.3 0.00 0.00 0.00 48 1020.1
20260831183408 92 329 0.0 2.6 0.00 0.00 0.00 51 1020.0
20260831182907 92 203 0.9 3.5 0.00 0.00 0.00 50 1020.2
20260831182403 92 176 0.0 2.6 0.00 0.00 0.00 50 1020.3
20260831181858 91 119 0.0 3.5 0.00 0.00 0.00 52 1020.2
20260831181353 91 207 2.6 3.5 0.00 0.00 0.00 52 1020.1
20260831180848 91 162 0.9 3.5 0.00 0.00 0.00 51 1020.4
20260831180342 91 154 1.7 2.6 0.00 0.00 0.00 54 1020.4
20260831175841 91 241 0.9 3.5 0.00 0.00 0.00 54 1020.3
20260831175338 91 279 4.3 4.3 0.00 0.00 0.00 53 1020.5
20260831174835 91 299 0.0 1.7 0.00 0.00 0.00 54 1020.3
20260831174330 91 223 4.3 4.3 0.00 0.00 0.00 55 1020.4
20260831173829 90 208 3.5 3.5 0.00 0.00 0.00 56 1020.5
20260831173328 90 269 1.7 2.6 0.00 0.00 0.00 55 1020.8
20260831172823 90 166 0.9 3.5 0.00 0.00 0.00 53 1020.8
20260831172319 91 273 3.5 3.5 0.00 0.00 0.00 54 1020.8
20260831171819 90 259 0.9 1.7 0.00 0.00 0.00 57 1020.7
20260831171315 89 121 0.0 2.6 0.00 0.00 0.00 57 1020.6
20260831170812 89 207 0.9 2.6 0.00 0.00 0.00 57 1020.8
20260831170308 89 357 1.7 2.6 0.00 0.00 0.00 56 1020.8
20260831165804 89 220 1.7 3.5 0.00 0.00 0.00 56 1020.8
20260831165300 89 214 2.6 4.3 0.00 0.00 0.00 57 1020.6
20260831164756 89 258 0.9 3.5 0.00 0.00 0.00 57 1020.6
20260831164252 89 216 0.9 3.5 0.00 0.00 0.00 57 1020.8
20260831163747 89 247 4.3 4.3 0.00 0.00 0.00 62 1020.9
20260831163243 88 263 0.0 2.6 0.00 0.00 0.00 61 1020.9
20260831162741 88 277 1.7 1.7 0.00 0.00 0.00 62 1021.0
20260831162236 87 134 0.0 2.6 0.00 0.00 0.00 65 1020.8
20260831161730 88 15 0.0 2.6 0.00 0.00 0.00 61 1021.3
20260831161227 88 292 0.9 2.6 0.00 0.00 0.00 60 1021.2
20260831160726 88 144 0.0 2.6 0.00 0.00 0.00 62 1020.9
20260831160222 87 224 2.6 2.6 0.00 0.00 0.00 63 1021.2
20260831155721 87 225 1.7 3.5 0.00 0.00 0.00 63 1021.3
20260831155216 87 204 1.7 3.5 0.00 0.00 0.00 61 1021.2
20260831154712 87 299 0.0 1.7 0.00 0.00 0.00 65 1021.1
20260831154209 87 262 0.0 1.7 0.00 0.00 0.00 66 1021.0
20260831153707 87 159 0.0 0.9 0.00 0.00 0.00 66 1021.0
20260831153203 87 323 0.0 0.0 0.00 0.00 0.00 65 1021.1
20260831152659 87 174 0.0 2.6 0.00 0.00 0.00 65 1021.1
20260831152155 87 224 0.9 2.6 0.00 0.00 0.00 66 1021.2
20260831151654 86 193 1.7 3.5 0.00 0.00 0.00 67 1021.2
20260831151148 86 283 0.9 1.7 0.00 0.00 0.00 68 1021.3
20260831150644 86 245 2.6 3.5 0.00 0.00 0.00 68 1021.3
20260831150139 85 247 0.0 1.7 0.00 0.00 0.00 71 1021.1
20260831145638 84 167 0.0 0.9 0.00 0.00 0.00 72 1021.0
20260831145135 84 299 0.0 2.6 0.00 0.00 0.00 71 1021.2
20260831144631 84 268 0.9 2.6 0.00 0.00 0.00 71 1021.3
20260831144126 84 143 0.0 2.6 0.00 0.00 0.00 71 1021.0
20260831143625 84 259 0.0 2.6 0.00 0.00 0.00 72 1021.1
20260831143121 85 80 0.0 2.6 0.00 0.00 0.00 70 1021.0
20260831142618 85 177 0.0 0.9 0.00 0.00 0.00 70 1021.2
20260831142113 85 211 0.9 2.6 0.00 0.00 0.00 69 1021.2
20260831141611 84 212 0.9 2.6 0.00 0.00 0.00 71 1021.1
20260831141107 84 261 1.7 2.6 0.00 0.00 0.00 72 1021.3
20260831140606 83 237 1.7 1.7 0.00 0.00 0.00 74 1021.4
20260831140101 82 282 2.6 2.6 0.00 0.00 0.00 74 1021.1
20260831135558 81 286 0.9 2.6 0.00 0.00 0.00 77 1021.3
20260831135055 80 75 0.0 3.5 0.00 0.00 0.00 78 1021.2
20260831134550 80 201 1.7 2.6 0.00 0.00 0.00 79 1021.2
20260831134045 80 101 1.7 3.5 0.00 0.00 0.00 78 1021.3
20260831133544 80 164 0.0 2.6 0.00 0.00 0.00 80 1021.1
20260831133039 79 231 1.7 2.6 0.00 0.00 0.00 81 1021.4
20260831132536 79 192 0.9 1.7 0.00 0.00 0.00 82 1021.3
20260831132034 78 166 0.0 1.7 0.00 0.00 0.00 82 1021.1
20260831131529 78 139 0.9 2.6 0.00 0.00 0.00 84 1021.2
20260831131025 78 119 0.0 1.7 0.00 0.00 0.00 84 1021.1
20260831130520 78 111 0.0 1.7 0.00 0.00 0.00 84 1021.2
20260831130016 78 78 0.0 1.7 0.00 0.00 0.00 84 1021.1
20260831125509 78 206 0.0 1.7 0.00 0.00 0.00 84 1021.2
20260831125004 77 159 0.0 0.9 0.00 0.00 0.00 85 1021.4
20260831124501 77 139 0.9 2.6 0.00 0.00 0.00 85 1021.4
20260831123956 78 168 0.9 2.6 0.00 0.00 0.00 86 1021.2
20260831123455 77 199 0.9 1.7 0.00 0.00 0.00 85 1021.3
20260831122949 77 207 0.9 1.7 0.00 0.00 0.00 86 1021.2
20260831122445 77 149 0.9 2.6 0.00 0.00 0.00 87 1021.2
20260831121940 76 199 0.0 0.9 0.00 0.00 0.00 88 1021.2
20260831121436 75 161 0.9 1.7 0.00 0.00 0.00 90 1021.2
20260831120931 74 188 0.9 0.9 0.00 0.00 0.00 93 1021.0
20260831120426 73 216 0.0 0.9 0.00 0.00 0.00 96 1020.9
20260831115926 73 168 0.9 0.9 0.00 0.00 0.00 97 1020.6
20260831115422 72 67 0.0 0.9 0.00 0.00 0.00 98 1020.8
20260831114921 72 172 0.0 0.0 0.00 0.00 0.00 98 1020.9
20260831114420 71 164 0.0 0.9 0.00 0.00 0.00 98 1020.9
20260831113916 71 154 0.0 0.9 0.00 0.00 0.00 98 1021.1
20260831113411 71 159 0.0 0.0 0.00 0.00 0.00 98 1020.7
20260831112906 71 139 1.7 1.7 0.00 0.00 0.00 98 1020.9
20260831112406 71 119 0.0 0.9 0.00 0.00 0.00 98 1020.7
20260831111901 71 193 0.0 0.0 0.00 0.00 0.00 98 1020.6
20260831111357 71 147 0.0 0.9 0.00 0.00 0.00 98 1020.6
20260831110852 71 92 0.0 0.9 0.00 0.00 0.00 98 1020.8
20260831110346 71 141 0.9 1.7 0.00 0.00 0.00 98 1020.5
20260831105845 71 159 0.0 0.9 0.00 0.00 0.00 97 1020.4
20260831105341 71 119 0.0 0.9 0.00 0.00 0.00 97 1020.6
20260831104836 71 166 0.9 1.7 0.00 0.00 0.00 97 1020.5
20260831104332 71 80 0.0 0.9 0.00 0.00 0.00 97 1020.5
20260831103832 71 164 0.0 1.7 0.00 0.00 0.00 97 1020.6
20260831103328 71 163 0.0 0.9 0.00 0.00 0.00 97 1020.4
20260831102828 71 172 0.9 1.7 0.00 0.00 0.00 97 1020.6
20260831102323 71 166 0.9 0.9 0.00 0.00 0.00 97 1020.8
20260831101820 71 149 0.0 0.9 0.00 0.00 0.00 97 1020.4
20260831101314 71 201 0.0 1.7 0.00 0.00 0.00 97 1020.3
20260831100810 71 162 1.7 1.7 0.00 0.00 0.00 96 1020.4
20260831100306 71 140 0.9 1.7 0.00 0.00 0.00 96 1020.4
20260831095805 72 144 0.0 0.9 0.00 0.00 0.00 96 1020.2
20260831095300 72 119 0.0 0.9 0.00 0.00 0.00 96 1020.2
20260831094755 72 142 0.9 0.9 0.00 0.00 0.00 96 1020.2
20260831094250 72 115 0.0 0.0 0.00 0.00 0.00 96 1020.2
20260831093747 72 150 0.9 1.7 0.00 0.00 0.00 95 1020.2
20260831093246 72 162 0.9 1.7 0.00 0.00 0.00 95 1020.2
20260831092743 72 172 0.0 0.0 0.00 0.00 0.00 95 1020.2
20260831092238 72 92 0.0 0.0 0.00 0.00 0.00 95 1020.2
20260831091737 72 79 0.0 0.0 0.00 0.00 0.00 95 1020.2
20260831091234 72 153 0.9 0.9 0.00 0.00 0.00 95 1020.1
20260831090729 72 172 0.9 1.7 0.00 0.00 0.00 95 1020.0
20260831090225 72 146 0.0 1.7 0.00 0.00 0.00 94 1020.3
20260831085721 73 141 0.9 0.9 0.00 0.00 0.00 95 1020.2
20260831085215 73 149 0.0 0.9 0.00 0.00 0.00 95 1020.1
20260831084710 73 143 0.0 0.9 0.00 0.00 0.00 95 1020.0
20260831084207 73 147 0.0 0.9 0.00 0.00 0.00 94 1020.3
20260831083703 73 151 0.0 0.9 0.00 0.00 0.00 94 1020.0
20260831083158 73 147 0.0 0.9 0.00 0.00 0.00 93 1020.2
20260831082656 73 147 0.0 0.9 0.00 0.00 0.00 93 1020.3
20260831082152 73 172 0.0 0.9 0.00 0.00 0.00 93 1020.1
20260831081647 73 147 0.0 0.0 0.00 0.00 0.00 93 1020.2
20260831081143 73 133 0.0 0.9 0.00 0.00 0.00 93 1020.1
20260831080638 73 115 0.0 0.9 0.00 0.00 0.00 94 1020.2
20260831080127 72 139 0.9 1.7 0.00 0.00 0.00 94 1020.1
20260831075624 72 80 0.0 0.9 0.00 0.00 0.00 95 1020.1
20260831075119 72 169 0.0 1.7 0.00 0.00 0.00 95 1020.2
20260831074618 72 151 0.0 0.0 0.00 0.00 0.00 95 1020.2
20260831074113 72 149 0.0 0.9 0.00 0.00 0.00 95 1020.2
20260831073608 72 157 0.0 0.9 0.00 0.00 0.00 94 1020.2
20260831073107 72 136 0.9 0.9 0.00 0.00 0.00 95 1020.2
20260831072602 72 141 0.9 1.7 0.00 0.00 0.00 95 1020.1
20260831072059 72 167 0.0 1.7 0.00 0.00 0.00 95 1020.4
20260831071557 72 159 0.0 0.9 0.00 0.00 0.00 95 1020.3
20260831071053 72 45 0.0 0.0 0.00 0.00 0.00 95 1020.2
20260831070551 72 154 0.0 0.9 0.00 0.00 0.00 95 1020.2
20260831070046 73 159 0.0 1.7 0.00 0.00 0.00 95 1020.6
20260831065544 73 146 0.0 1.7 0.00 0.00 0.00 95 1020.3
20260831065039 73 138 1.7 1.7 0.00 0.00 0.00 95 1020.5
20260831064534 73 92 0.0 0.9 0.00 0.00 0.00 95 1020.3
20260831064029 73 80 0.0 0.0 0.00 0.00 0.00 95 1020.5
20260831063525 73 159 0.0 0.9 0.00 0.00 0.00 95 1020.5
20260831063020 73 129 0.0 1.7 0.00 0.00 0.00 95 1020.6
20260831062514 73 150 0.9 0.9 0.00 0.00 0.00 95 1020.6
20260831062014 73 140 0.9 1.7 0.00 0.00 0.00 95 1020.5
20260831061512 73 146 0.9 1.7 0.00 0.00 0.00 95 1020.4
20260831061008 73 156 0.9 0.9 0.00 0.00 0.00 95 1020.3
20260831060503 73 74 0.0 0.9 0.00 0.00 0.00 95 1020.6
20260831060002 73 85 0.0 0.9 0.00 0.00 0.00 96 1020.6
20260831055457 73 154 0.0 0.9 0.00 0.00 0.00 95 1020.6
20260831054954 73 136 0.9 1.7 0.00 0.00 0.00 95 1020.8
20260831054453 73 148 1.7 1.7 0.00 0.00 0.00 95 1020.7
20260831053953 73 143 0.0 0.9 0.00 0.00 0.00 95 1020.9
20260831053451 73 128 0.0 1.7 0.00 0.00 0.00 95 1020.8
20260831052945 73 143 0.9 1.7 0.00 0.00 0.00 95 1020.9
20260831052439 73 144 0.9 1.7 0.00 0.00 0.00 95 1020.8
20260831051938 73 136 0.9 1.7 0.00 0.00 0.00 94 1020.8
20260831051437 74 146 0.0 0.9 0.00 0.00 0.00 94 1020.9
20260831050932 74 147 0.9 1.7 0.00 0.00 0.00 93 1020.7
20260831050431 74 147 0.0 0.0 0.00 0.00 0.00 93 1020.8
20260831045930 74 147 0.0 0.0 0.00 0.00 0.00 93 1021.0
20260831045429 74 147 0.0 0.9 0.00 0.00 0.00 93 1021.1
20260831044924 74 138 0.0 0.9 0.00 0.00 0.00 92 1021.0
20260831044420 74 157 0.0 0.0 0.00 0.00 0.00 92 1020.9
20260831043915 74 149 0.0 0.9 0.00 0.00 0.00 92 1020.8
20260831043415 74 143 0.0 0.9 0.00 0.00 0.00 92 1021.1
20260831042911 74 125 0.9 1.7 0.00 0.00 0.00 92 1021.0
20260831042410 74 159 0.0 0.9 0.00 0.00 0.00 93 1021.0
20260831041905 74 133 0.0 0.9 0.00 0.00 0.00 93 1021.2
20260831041404 75 162 0.0 0.9 0.00 0.00 0.00 93 1021.3
20260831040859 75 154 0.0 0.0 0.00 0.00 0.00 93 1021.0
20260831040354 75 160 0.0 0.9 0.00 0.00 0.00 93 1021.1
20260831035852 75 119 0.0 0.0 0.00 0.00 0.00 92 1021.2
20260831035351 75 184 0.0 1.7 0.00 0.00 0.00 92 1021.1
20260831034846 75 152 0.9 1.7 0.00 0.00 0.00 91 1021.1
20260831034341 76 140 0.9 1.7 0.00 0.00 0.00 90 1021.1
20260831033836 75 194 0.0 0.0 0.00 0.00 0.00 90 1021.0
20260831033336 76 194 0.0 0.9 0.00 0.00 0.00 90 1021.2
20260831032831 76 184 0.0 0.9 0.00 0.00 0.00 90 1021.0
20260831032325 76 194 0.0 0.0 0.00 0.00 0.00 90 1021.2
20260831031821 75 165 0.0 0.0 0.00 0.00 0.00 90 1021.2
20260831031320 75 165 0.0 0.0 0.00 0.00 0.00 90 1021.3
20260831030816 75 171 0.0 0.9 0.00 0.00 0.00 90 1021.3
20260831030314 75 143 0.0 0.9 0.00 0.00 0.00 90 1021.4
20260831025808 75 147 0.0 0.9 0.00 0.00 0.00 90 1021.2
20260831025306 75 175 0.9 1.7 0.00 0.00 0.00 91 1021.4
20260831024758 75 160 0.0 1.7 0.00 0.00 0.00 92 1021.2
20260831024257 75 179 0.0 0.9 0.00 0.00 0.00 92 1021.3
20260831023756 75 160 0.0 0.9 0.00 0.00 0.00 92 1021.4
20260831023254 75 172 0.0 0.0 0.00 0.00 0.00 92 1021.2
20260831022750 75 152 0.9 0.9 0.00 0.00 0.00 92 1021.2
20260831022249 75 101 0.0 1.7 0.00 0.00 0.00 92 1021.2
20260831021744 75 131 0.9 1.7 0.00 0.00 0.00 92 1021.3
20260831021243 75 172 0.0 1.7 0.00 0.00 0.00 92 1021.4
20260831020740 75 91 0.0 0.9 0.00 0.00 0.00 91 1021.2
20260831020239 75 147 0.0 0.0 0.00 0.00 0.00 91 1021.1
20260831015735 75 147 0.0 0.9 0.00 0.00 0.00 91 1021.2
20260831015230 75 154 0.0 0.9 0.00 0.00 0.00 91 1021.2
20260831014725 75 161 0.0 0.9 0.00 0.00 0.00 91 1021.3
20260831014220 75 163 0.9 1.7 0.00 0.00 0.00 91 1021.3
20260831013717 75 148 0.0 0.9 0.00 0.00 0.00 91 1021.4
20260831013215 76 150 0.0 0.9 0.00 0.00 0.00 91 1021.1
20260831012711 76 172 0.0 0.9 0.00 0.00 0.00 91 1021.1
20260831012206 76 159 0.9 1.7 0.00 0.00 0.00 90 1021.3
20260831011705 76 154 0.0 0.9 0.00 0.00 0.00 89 1021.4
20260831011201 76 184 0.0 0.9 0.00 0.00 0.00 89 1021.3
20260831010657 76 159 0.0 0.9 0.00 0.00 0.00 89 1021.4
20260831010152 76 166 0.9 1.7 0.00 0.00 0.00 89 1021.4
20260831005651 77 184 0.0 0.9 0.00 0.00 0.00 88 1021.1
20260831005147 77 176 0.0 0.9 0.00 0.00 0.00 88 1021.1
20260831004642 77 156 0.0 0.9 0.00 0.00 0.00 88 1020.8
20260831004138 77 152 0.0 0.9 0.00 0.00 0.00 88 1020.9
20260831003634 77 162 0.9 0.9 0.00 0.00 0.00 87 1020.7
20260831003130 77 156 0.9 0.9 0.00 0.00 0.00 86 1020.6
20260831002628 78 149 0.9 1.7 0.00 0.00 0.00 86 1020.7
20260831002124 78 160 0.9 1.7 0.00 0.00 0.00 85 1020.3
20260831001619 78 171 0.0 0.0 0.00 0.00 0.00 84 1020.5
20260831001115 79 184 0.0 0.0 0.00 0.00 0.00 83 1020.4
20260831000612 79 154 0.0 0.9 0.00 0.00 0.00 83 1020.4
20260831000111 79 152 0.0 0.9 0.00 0.00 0.00 82 1020.3
20260830235610 80 165 0.9 1.7 0.00 0.00 0.00 80 1020.4
20260830235105 80 170 0.0 0.9 0.00 0.00 0.00 81 1020.3
20260830234600 81 177 0.9 0.9 0.00 0.00 0.00 80 1020.3